SCP
-0 -0 -0 -0 -0 -0 0 -0 -0 0 0 -0 -0 -0 -0 0 -0 0 0 0 0 0 0 0 0 0 0 0 -0 -0 0 0 -0 0 0 -0 -0 0 0 0 0 0 0 0 1
-0 -0 -0 -0 0 0 0 0 -0 -0 -0 -0 -0 -0 -0 0 0 0 0 0 0 0 0 0 0 0 0 0 0 0 0 0 -0 0 0 0 0 0 0 0 0 0 0 0 0
-0 -0 -0 -0 -0 -0 -0 -0 0 0 -0 -0 -0 -0 -0 -0 0 0 -0 0 0 0 -0 -0 0 0 0 0 0 0 0 0 0 0 0 0 0 0 0 0 0 0 0 0 0
-0 -0 -0 -0 -0 -0 -0 0 0 0 0 -0 -0 -0 -0 0 0 -0 -0 0 0 0 0 0 0 0 0 0 0 0 0 0 0 0 0 0 0 0 0 0 0 0 0 0 0
-0 -0 -0 -0 -0 -0 -0 0 -0 0 -0 -0 -0 -0 -0 0 0 -0 -0 0 -0 0 -0 0 0 0 0 0 0 0 0 0 0 0 0 0 0 0 0 0 0 0 0 0 0
-0 -0 -0 -0 -0 -0 -0 -0 -0 -0 -0 -0 0 0 0 0 -0 0 0 0 0 -0 0 -0 0 -0 0 0 0 0 0 0 0 0 0 0 0 0 0 0 0 -0 0 0 0
-0 -0 -0 -0 -0 -0 0 -0 -0 -0 -0 -0 -0 0 0 0 0 0 0 -0 0 0 0 0 0 0 0 0 0 0 0 0 0 0 0 0 0 0 0 0 0 0 0 0 0
-0 -0 -0 -0 -0 0 -0 -0 0 0 -0 -0 -0 0 0 0 0 0 0 0 0 0 0 0 0 0 0 0 0 -0 -0 0 0 0 -0 -0 0 0 -0 -0 -0 0 -0 0 0
-0 -0 -0 -0 -0 0 -0 -0 -0 -0 0 0 0 0 0 0 0 0 0 0 0 0 0 0 0 -0 -0 0 0 0 0 0 0 0 0 0 0 0 0 0 0 0 0 0 0
-0 -0 -0 -0 -0 -0 -0 -0 0 0 0 -0 0 0 0 0 0 0 0 -0 0 0 0 0 0 -0 0 0 0 0 0 0 -0 -0 0 0 0 0 0 0 0 0 0 0 0
-0 -0 -0 -0 0 0 -0 0 0 0 0 0 0 0 0 0 0 0 0 -0 0 0 0 0 0 0 0 0 0 0 0 0 0 0 0 0 0 0 0 0 0 0 0 0 0
-0 -0 -0 -0 0 0 0 -0 0 0 0 0 0 0 0 0 0 0 0 0 0 0 0 0 0 0 0 0 0 0 0 0 0 0 0 0 0 0 0 0 0 0 0 0 0
-0 -0 -0 -0 -0 0 0 0 0 0 0 0 0 0 0 0 0 0 0 0 0 0 0 0 0 0 0 0 0 0 0 0 0 0 0 0 0 0 0 0 0 0 0 0 0
-0 -0 0 -0 0 0 0 0 0 0 0 0 0 0 0 0 0 0 0 0 0 0 0 0 0 0 0 0 0 0 0 0 0 0 -0 0 0 0 0 0 0 0 0 0 0
-0 -0 0 0 0 0 0 0 -0 0 0 0 0 0 0 0 0 0 0 0 0 0 0 0 0 0 0 0 0 0 0 0 0 0 0 0 0 0 0 0 0 0 0 0 0
-0 -0 0 0 0 0 -0 -0 0 0 0 0 0 0 0 0 0 0 0 0 0 0 0 0 0 0 0 0 0 0 0 0 0 -0 0 -0 0 0 0 0 0 0 0 0 0
-0 -0 0 0 0 -0 -0 0 0 0 0 0 0 0 0 0 0 0 0 0 0 0 0 0 0 0 0 0 0 0 0 0 -0 0 -0 0 0 0 0 0 0 0 0 0 0
-0 -0 0 0 0 0 0 -0 0 0 0 0 0 0 0 0 0 0 0 0 0 0 0 0 0 0 0 0 0 0 -0 0 -0 0 -0 0 0 0 0 0 0 0 0 0 0
-0 0 0 0 0 0 0 0 0 0 0 0 0 0 0 0 0 0 0 0 0 0 0 0 0 0 0 -0 0 0 0 0 0 0 0 0 0 0 0 0 0 0 0 0 0
0 0 0 0 0 0 0 0 0 0 0 0 0 0 0 0 0 0 0 0 0 0 0 0 0 0 0 0 -0 0 0 0 0 0 0 0 0 0 0 0 0 0 0 0 0
0 0 0 0 0 0 0 0 0 0 0 0 0 0 0 0 0 0 0 0 0 0 0 0 0 0 0 -0 -0 -0 0 0 0 0 0 -0 -0 0 0 0 0 0 0 0 0
0 0 0 0 0 0 0 0 0 0 0 0 0 0 0 0 0 0 0 0 0 0 0 0 0 0 0 0 -0 0 0 0 0 0 -0 0 0 0 0 0 -0 0 0 0 0
0 0 0 0 0 0 0 0 0 0 0 0 0 0 0 0 0 0 0 0 0 0 0 0 0 0 0 -0 -0 -0 -0 -0 0 -0 0 0 0 0 0 0 0 0 0 0 0
0 0 0 0 0 0 0 0 0 0 0 0 0 0 0 0 0 0 0 0 0 0 0 0 0 0 -0 0 -0 0 0 -0 -0 -0 0 -0 0 0 -0 -0 -0 -0 0 0 0
0 0 0 0 0 0 0 0 0 0 0 0 0 0 0 0 0 0 0 0 0 0 0 0 0 -0 -0 -0 -0 -0 0 -0 0 -0 -0 -0 -0 -0 0 -0 -0 -0 -0 0 0
0 0 0 0 0 0 0 0 0 0 0 0 0 0 0 0 0 0 0 0 0 0 0 0 -0 -0 -0 -0 -0 -0 -0 0 0 0 -0 0 -0 -0 -0 -0 0 -0 -0 -0 0
0 0 0 0 0 0 0 0 0 0 0 0 0 0 0 0 0 0 0 0 0 0 0 0 -0 0 -0 0 0 -0 -0 -0 -0 -0 -0 -0 -0 -0 0 -0 -0 -0 -0 -0 -0
Wind_Speed_500mb
27 27 28 29 29 24 21 18 11 2 8 19 29 36 35 34 44 33 36 36 41 32 15 36 23 16 20 29 35 39 27 31 44 45 43 53 40 22 8 9 23 30 30 12 29
29 27 28 30 25 21 20 20 16 9 8 23 32 24 14 8 15 39 39 28 26 26 23 30 25 24 26 33 33 33 28 45 40 43 42 51 45 41 43 24 25 32 33 22 20
28 27 31 32 26 24 24 22 22 23 11 18 23 8 14 12 8 33 49 41 28 33 28 31 28 27 34 36 41 43 39 39 50 59 62 56 53 44 39 35 40 38 46 40 33
30 28 33 31 26 26 24 23 21 24 27 19 10 12 15 16 6 35 56 53 37 37 29 26 24 30 31 31 40 40 52 55 58 62 64 49 63 55 53 45 48 50 47 49 49
32 30 31 26 22 23 21 22 27 28 26 32 31 15 10 3 20 38 52 48 31 31 25 26 27 29 29 30 40 38 40 52 60 60 62 62 56 55 59 60 54 54 56 55 54
29 25 24 22 17 18 17 17 21 23 26 29 26 26 12 15 23 38 50 48 29 32 24 25 24 27 31 29 28 37 44 50 60 67 66 56 55 58 74 59 57 61 62 62 58
26 22 22 21 16 11 13 10 8 8 7 3 5 8 18 18 30 38 49 45 29 31 33 24 23 21 19 30 30 33 38 41 43 55 53 64 52 54 82 60 63 65 63 56 56
27 25 17 17 18 7 3 10 15 23 33 14 12 12 6 18 34 41 52 43 28 26 23 20 18 25 32 26 37 37 39 33 35 44 47 55 53 54 70 62 65 72 72 70 58
28 25 15 18 10 9 7 19 23 5 17 23 21 2 8 24 39 46 54 49 33 26 15 18 14 25 32 29 25 30 32 46 52 53 60 58 58 36 55 45 46 45 33 39 56
27 25 21 7 15 3 17 17 31 42 11 6 23 6 33 42 36 48 59 40 34 27 27 19 19 27 10 23 22 35 34 39 43 46 52 57 55 50 59 44 40 46 57 45 37
29 29 26 10 19 5 11 14 12 5 34 26 15 16 29 41 25 48 66 36 31 19 20 30 21 18 26 22 26 37 35 36 43 44 51 50 51 49 50 57 51 51 62 64 51
32 31 26 8 21 21 10 12 9 4 10 16 14 19 29 32 22 48 59 32 28 23 30 27 8 19 21 26 32 38 33 38 43 42 42 47 52 47 45 44 54 56 62 68 67
32 30 25 11 22 19 17 12 7 3 11 9 16 25 36 36 18 47 53 39 25 29 30 26 14 20 24 29 28 29 32 37 46 48 49 44 49 41 49 58 63 69 71 68 62
34 33 27 11 14 11 11 12 5 1 9 11 22 21 40 43 2 43 35 35 23 25 31 16 27 23 26 26 30 31 41 45 45 41 37 38 34 43 41 38 36 66 76 75 76
41 38 26 22 11 13 11 8 2 3 4 14 16 20 31 41 19 45 31 32 29 38 26 28 41 35 26 17 36 43 45 45 53 50 46 50 25 18 53 47 50 47 69 72 71
36 39 37 17 21 12 5 4 4 6 8 7 10 30 28 38 25 42 28 35 14 41 21 46 59 8 8 24 37 51 45 54 50 41 36 48 37 33 24 35 49 57 70 74 79
36 41 47 28 13 15 8 4 3 9 20 20 24 31 18 29 25 37 36 28 28 27 41 40 33 31 36 59 44 44 38 24 30 23 18 26 19 22 37 46 46 50 74 81 82
20 42 45 34 27 22 19 7 15 15 17 24 26 23 18 36 24 39 36 21 30 33 33 33 45 44 64 51 56 43 38 17 28 29 36 39 10 13 38 56 64 72 72 79 89
20 26 38 28 29 26 11 12 9 16 20 22 31 14 19 31 23 31 29 23 21 34 31 30 36 66 61 55 44 33 31 33 33 38 29 2 17 18 50 52 68 76 81 88 99
13 3 43 25 25 18 10 9 9 17 20 21 18 16 27 33 26 32 20 23 23 36 52 46 55 56 56 57 40 38 20 18 9 10 11 14 18 23 50 54 52 60 81 84 97
21 1 39 12 20 22 9 10 9 17 19 17 17 17 25 31 32 28 22 23 44 40 50 46 37 55 41 33 29 30 16 11 19 15 12 9 12 28 40 42 49 59 83 82 95
21 9 44 33 17 14 13 11 8 14 18 15 11 18 21 32 20 15 25 33 52 48 34 30 35 31 56 25 34 31 18 20 9 26 20 5 15 35 37 47 63 72 83 84 89
10 18 34 25 8 9 16 13 19 19 20 18 12 17 25 23 14 22 27 42 51 30 28 27 19 32 45 32 39 20 30 35 9 9 35 15 14 33 48 49 68 68 77 83 87
6 7 18 28 25 13 7 14 11 9 7 18 6 18 24 23 24 16 34 34 44 35 34 38 25 27 24 33 35 14 31 41 25 16 14 27 35 43 44 41 67 76 86 85 92
11 10 7 4 14 21 21 11 16 16 14 16 10 24 25 17 25 23 30 23 34 36 47 27 30 28 30 26 27 24 30 42 38 23 18 24 31 37 34 32 52 62 78 88 89
11 9 13 12 6 12 7 11 19 20 13 15 18 26 23 19 19 28 28 25 22 39 33 31 23 27 17 30 22 43 34 41 36 28 23 27 24 33 48 40 56 64 69 74 83
18 12 5 3 14 10 10 8 15 18 5 13 21 24 18 25 30 28 27 28 20 26 30 26 22 21 13 9 5 37 31 33 26 27 23 25 18 34 34 37 44 58 63 66 75
Wind_Direction_500mb
24 21 16 8 359 360 7 9 20 357 164 141 129 117 95 81 57 32 24 347 330 328 305 339 278 269 253 253 245 254 257 256 262 268 272 275 292 322 100 300 286 288 287 138 121
20 17 15 9 13 20 24 25 41 64 149 155 144 134 68 82 85 26 1 343 325 319 326 328 311 303 267 254 243 237 247 255 263 272 289 296 307 307 319 297 275 271 259 232 178
17 18 16 18 27 31 30 33 55 63 66 193 182 152 29 18 315 2 345 356 2 350 319 308 293 278 273 272 261 245 246 257 270 284 297 302 301 299 296 284 274 262 278 282 198
19 21 20 26 32 35 42 56 64 68 67 73 171 158 44 18 22 345 344 350 360 347 325 316 296 277 272 270 269 264 261 265 273 278 283 287 291 287 284 274 277 283 282 281 287
19 21 22 26 34 39 50 63 70 76 80 85 90 72 339 17 356 338 343 342 343 337 328 322 308 298 282 295 300 283 284 286 285 285 281 278 273 279 272 275 269 268 271 271 272
18 21 22 25 26 43 62 82 87 84 92 90 85 48 44 65 352 351 344 343 337 334 320 314 297 297 299 288 285 294 297 293 292 292 292 289 284 279 263 264 263 257 256 257 256
16 16 17 23 27 41 71 72 20 356 338 61 91 75 52 22 346 340 343 339 324 328 315 308 293 279 291 302 288 308 298 286 282 281 279 276 270 258 265 269 267 266 259 245 243
15 16 15 13 30 21 24 38 32 73 57 79 68 44 70 355 350 352 347 346 328 325 307 306 297 277 266 270 279 264 268 272 298 308 279 253 258 261 266 264 256 247 243 240 239
11 12 7 15 4 48 71 69 48 107 43 45 2 196 30 339 352 354 349 339 331 324 279 289 293 260 272 238 279 304 331 318 309 316 309 306 311 284 283 281 274 301 283 268 229
13 9 3 350 2 26 124 83 64 29 356 13 16 171 20 347 343 347 350 337 327 308 302 249 246 252 239 360 315 316 304 302 302 316 310 301 296 301 303 288 290 296 297 280 277
13 8 2 35 14 95 175 309 281 127 50 69 43 45 345 345 355 354 354 341 347 325 344 303 287 10 354 338 302 290 293 304 312 313 305 298 294 288 288 291 291 286 285 287 274
15 14 14 39 37 63 31 308 16 4 77 61 41 23 359 346 357 3 358 3 348 338 348 321 75 6 330 306 300 295 311 310 311 304 306 311 304 293 286 276 275 273 271 276 281
15 14 20 57 55 58 59 36 24 0 232 88 33 17 359 350 354 2 2 352 352 344 342 303 30 338 322 307 333 322 314 314 307 305 290 282 278 273 274 277 271 272 274 274 269
18 19 19 47 51 22 24 9 315 223 236 37 19 15 353 350 216 3 2 357 321 347 329 291 347 320 312 313 4 313 322 308 301 301 287 291 299 290 286 274 10 16 11 6 5
19 22 25 56 32 46 332 341 267 334 267 25 9 356 347 24 310 355 354 3 347 335 302 290 336 314 297 356 343 307 311 305 294 280 275 268 260 335 26 3 3 2 0 359 360
16 25 36 46 6 16 351 112 33 248 44 26 27 343 351 12 8 354 350 26 30 332 3 332 297 241 328 328 330 316 310 300 282 271 255 260 250 43 16 359 354 358 360 360 358
30 31 30 32 11 5 43 346 264 53 355 355 339 335 349 5 3 2 349 35 26 350 346 331 324 340 41 339 325 323 306 304 299 303 311 9 46 37 16 6 4 360 358 0 359
27 30 20 32 29 18 29 220 62 11 10 340 328 328 19 13 355 356 343 17 28 11 332 353 321 359 336 317 303 289 288 290 300 300 308 316 77 38 27 10 12 6 1 6 1
38 31 19 37 23 10 324 53 25 6 347 333 321 359 353 3 345 347 352 31 15 22 1 322 304 309 305 309 315 298 288 314 297 285 268 138 6 17 10 14 7 8 3 6 5
66 11 6 39 14 22 51 87 78 14 340 333 6 6 345 357 349 350 356 10 14 5 352 317 309 309 332 319 331 320 304 299 285 291 319 83 62 18 3 11 2 6 1 1 6
33 251 1 42 48 58 72 74 67 36 5 4 356 337 345 354 333 340 352 353 13 350 345 340 331 318 315 359 10 344 332 282 310 279 297 45 48 13 9 12 0 4 1 358 3
27 53 16 33 51 48 55 35 346 8 14 8 8 348 358 336 328 351 346 11 357 341 354 348 321 334 320 55 2 350 327 20 357 331 342 250 65 14 13 20 7 5 1 358 3
62 51 23 51 73 61 98 95 54 11 25 8 356 356 350 336 327 341 357 360 344 15 0 334 336 335 332 337 349 20 18 27 6 43 34 43 26 2 10 21 12 7 359 0 1
20 33 27 40 51 49 70 44 47 47 30 353 331 359 347 332 354 326 357 347 6 19 344 339 331 333 315 314 324 359 36 46 49 42 47 35 15 1 358 22 7 3 1 1 1
55 56 20 22 38 54 53 32 33 13 357 28 346 3 341 335 341 5 344 346 360 358 352 350 329 333 311 304 18 45 57 60 54 51 38 33 34 4 3 16 6 360 3 2 357
70 33 65 68 30 56 22 35 15 358 12 8 350 346 326 7 341 320 332 339 357 348 352 353 342 336 39 85 67 38 32 64 56 38 45 36 35 9 1 11 8 3 1 359 355
47 18 12 295 48 48 33 43 11 358 104 9 350 334 349 343 314 298 295 296 336 341 352 347 339 342 3 99 272 35 19 39 37 55 50 34 16 8 357 6 9 355 358 0 352
Wind_Speed_850mb
27 27 28 29 29 24 21 18 11 2 8 19 29 36 35 34 44 33 36 36 41 32 15 36 23 16 20 29 35 39 27 31 44 45 43 53 40 22 8 9 23 30 30 12 29
29 27 28 30 25 21 20 20 16 9 8 23 32 24 14 8 15 39 39 28 26 26 23 30 25 24 26 33 33 33 28 45 40 43 42 51 45 41 43 24 25 32 33 22 20
28 27 31 32 26 24 24 22 22 23 11 18 23 8 14 12 8 33 49 41 28 33 28 31 28 27 34 36 41 43 39 39 50 59 62 56 53 44 39 35 40 38 46 40 33
30 28 33 31 26 26 24 23 21 24 27 19 10 12 15 16 6 35 56 53 37 37 29 26 24 30 31 31 40 40 52 55 58 62 64 49 63 55 53 45 48 50 47 49 49
32 30 31 26 22 23 21 22 27 28 26 32 31 15 10 3 20 38 52 48 31 31 25 26 27 29 29 30 40 38 40 52 60 60 62 62 56 55 59 60 54 54 56 55 54
29 25 24 22 17 18 17 17 21 23 26 29 26 26 12 15 23 38 50 48 29 32 24 25 24 27 31 29 28 37 44 50 60 67 66 56 55 58 74 59 57 61 62 62 58
26 22 22 21 16 11 13 10 8 8 7 3 5 8 18 18 30 38 49 45 29 31 33 24 23 21 19 30 30 33 38 41 43 55 53 64 52 54 82 60 63 65 63 56 56
27 25 17 17 18 7 3 10 15 23 33 14 12 12 6 18 34 41 52 43 28 26 23 20 18 25 32 26 37 37 39 33 35 44 47 55 53 54 70 62 65 72 72 70 58
28 25 15 18 10 9 7 19 23 5 17 23 21 2 8 24 39 46 54 49 33 26 15 18 14 25 32 29 25 30 32 46 52 53 60 58 58 36 55 45 46 45 33 39 56
27 25 21 7 15 3 17 17 31 42 11 6 23 6 33 42 36 48 59 40 34 27 27 19 19 27 10 23 22 35 34 39 43 46 52 57 55 50 59 44 40 46 57 45 37
29 29 26 10 19 5 11 14 12 5 34 26 15 16 29 41 25 48 66 36 31 19 20 30 21 18 26 22 26 37 35 36 43 44 51 50 51 49 50 57 51 51 62 64 51
32 31 26 8 21 21 10 12 9 4 10 16 14 19 29 32 22 48 59 32 28 23 30 27 8 19 21 26 32 38 33 38 43 42 42 47 52 47 45 44 54 56 62 68 67
32 30 25 11 22 19 17 12 7 3 11 9 16 25 36 36 18 47 53 39 25 29 30 26 14 20 24 29 28 29 32 37 46 48 49 44 49 41 49 58 63 69 71 68 62
34 33 27 11 14 11 11 12 5 1 9 11 22 21 40 43 2 43 35 35 23 25 31 16 27 23 26 26 30 31 41 45 45 41 37 38 34 43 41 38 36 66 76 75 76
41 38 26 22 11 13 11 8 2 3 4 14 16 20 31 41 19 45 31 32 29 38 26 28 41 35 26 17 36 43 45 45 53 50 46 50 25 18 53 47 50 47 69 72 71
36 39 37 17 21 12 5 4 4 6 8 7 10 30 28 38 25 42 28 35 14 41 21 46 59 8 8 24 37 51 45 54 50 41 36 48 37 33 24 35 49 57 70 74 79
36 41 47 28 13 15 8 4 3 9 20 20 24 31 18 29 25 37 36 28 28 27 41 40 33 31 36 59 44 44 38 24 30 23 18 26 19 22 37 46 46 50 74 81 82
20 42 45 34 27 22 19 7 15 15 17 24 26 23 18 36 24 39 36 21 30 33 33 33 45 44 64 51 56 43 38 17 28 29 36 39 10 13 38 56 64 72 72 79 89
20 26 38 28 29 26 11 12 9 16 20 22 31 14 19 31 23 31 29 23 21 34 31 30 36 66 61 55 44 33 31 33 33 38 29 2 17 18 50 52 68 76 81 88 99
13 3 43 25 25 18 10 9 9 17 20 21 18 16 27 33 26 32 20 23 23 36 52 46 55 56 56 57 40 38 20 18 9 10 11 14 18 23 50 54 52 60 81 84 97
21 1 39 12 20 22 9 10 9 17 19 17 17 17 25 31 32 28 22 23 44 40 50 46 37 55 41 33 29 30 16 11 19 15 12 9 12 28 40 42 49 59 83 82 95
21 9 44 33 17 14 13 11 8 14 18 15 11 18 21 32 20 15 25 33 52 48 34 30 35 31 56 25 34 31 18 20 9 26 20 5 15 35 37 47 63 72 83 84 89
10 18 34 25 8 9 16 13 19 19 20 18 12 17 25 23 14 22 27 42 51 30 28 27 19 32 45 32 39 20 30 35 9 9 35 15 14 33 48 49 68 68 77 83 87
6 7 18 28 25 13 7 14 11 9 7 18 6 18 24 23 24 16 34 34 44 35 34 38 25 27 24 33 35 14 31 41 25 16 14 27 35 43 44 41 67 76 86 85 92
11 10 7 4 14 21 21 11 16 16 14 16 10 24 25 17 25 23 30 23 34 36 47 27 30 28 30 26 27 24 30 42 38 23 18 24 31 37 34 32 52 62 78 88 89
11 9 13 12 6 12 7 11 19 20 13 15 18 26 23 19 19 28 28 25 22 39 33 31 23 27 17 30 22 43 34 41 36 28 23 27 24 33 48 40 56 64 69 74 83
18 12 5 3 14 10 10 8 15 18 5 13 21 24 18 25 30 28 27 28 20 26 30 26 22 21 13 9 5 37 31 33 26 27 23 25 18 34 34 37 44 58 63 66 75
Wind_Direction_850mb
24 21 16 8 359 360 7 9 20 357 164 141 129 117 95 81 57 32 24 347 330 328 305 339 278 269 253 253 245 254 257 256 262 268 272 275 292 322 100 300 286 288 287 138 121
20 17 15 9 13 20 24 25 41 64 149 155 144 134 68 82 85 26 1 343 325 319 326 328 311 303 267 254 243 237 247 255 263 272 289 296 307 307 319 297 275 271 259 232 178
17 18 16 18 27 31 30 33 55 63 66 193 182 152 29 18 315 2 345 356 2 350 319 308 293 278 273 272 261 245 246 257 270 284 297 302 301 299 296 284 274 262 278 282 198
19 21 20 26 32 35 42 56 64 68 67 73 171 158 44 18 22 345 344 350 360 347 325 316 296 277 272 270 269 264 261 265 273 278 283 287 291 287 284 274 277 283 282 281 287
19 21 22 26 34 39 50 63 70 76 80 85 90 72 339 17 356 338 343 342 343 337 328 322 308 298 282 295 300 283 284 286 285 285 281 278 273 279 272 275 269 268 271 271 272
18 21 22 25 26 43 62 82 87 84 92 90 85 48 44 65 352 351 344 343 337 334 320 314 297 297 299 288 285 294 297 293 292 292 292 289 284 279 263 264 263 257 256 257 256
16 16 17 23 27 41 71 72 20 356 338 61 91 75 52 22 346 340 343 339 324 328 315 308 293 279 291 302 288 308 298 286 282 281 279 276 270 258 265 269 267 266 259 245 243
15 16 15 13 30 21 24 38 32 73 57 79 68 44 70 355 350 352 347 346 328 325 307 306 297 277 266 270 279 264 268 272 298 308 279 253 258 261 266 264 256 247 243 240 239
11 12 7 15 4 48 71 69 48 107 43 45 2 196 30 339 352 354 349 339 331 324 279 289 293 260 272 238 279 304 331 318 309 316 309 306 311 284 283 281 274 301 283 268 229
13 9 3 350 2 26 124 83 64 29 356 13 16 171 20 347 343 347 350 337 327 308 302 249 246 252 239 360 315 316 304 302 302 316 310 301 296 301 303 288 290 296 297 280 277
13 8 2 35 14 95 175 309 281 127 50 69 43 45 345 345 355 354 354 341 347 325 344 303 287 10 354 338 302 290 293 304 312 313 305 298 294 288 288 291 291 286 285 287 274
15 14 14 39 37 63 31 308 16 4 77 61 41 23 359 346 357 3 358 3 348 338 348 321 75 6 330 306 300 295 311 310 311 304 306 311 304 293 286 276 275 273 271 276 281
15 14 20 57 55 58 59 36 24 0 232 88 33 17 359 350 354 2 2 352 352 344 342 303 30 338 322 307 333 322 314 314 307 305 290 282 278 273 274 277 271 272 274 274 269
18 19 19 47 51 22 24 9 315 223 236 37 19 15 353 350 216 3 2 357 321 347 329 291 347 320 312 313 4 313 322 308 301 301 287 291 299 290 286 274 10 16 11 6 5
19 22 25 56 32 46 332 341 267 334 267 25 9 356 347 24 310 355 354 3 347 335 302 290 336 314 297 356 343 307 311 305 294 280 275 268 260 335 26 3 3 2 0 359 360
16 25 36 46 6 16 351 112 33 248 44 26 27 343 351 12 8 354 350 26 30 332 3 332 297 241 328 328 330 316 310 300 282 271 255 260 250 43 16 359 354 358 360 360 358
30 31 30 32 11 5 43 346 264 53 355 355 339 335 349 5 3 2 349 35 26 350 346 331 324 340 41 339 325 323 306 304 299 303 311 9 46 37 16 6 4 360 358 0 359
27 30 20 32 29 18 29 220 62 11 10 340 328 328 19 13 355 356 343 17 28 11 332 353 321 359 336 317 303 289 288 290 300 300 308 316 77 38 27 10 12 6 1 6 1
38 31 19 37 23 10 324 53 25 6 347 333 321 359 353 3 345 347 352 31 15 22 1 322 304 309 305 309 315 298 288 314 297 285 268 138 6 17 10 14 7 8 3 6 5
66 11 6 39 14 22 51 87 78 14 340 333 6 6 345 357 349 350 356 10 14 5 352 317 309 309 332 319 331 320 304 299 285 291 319 83 62 18 3 11 2 6 1 1 6
33 251 1 42 48 58 72 74 67 36 5 4 356 337 345 354 333 340 352 353 13 350 345 340 331 318 315 359 10 344 332 282 310 279 297 45 48 13 9 12 0 4 1 358 3
27 53 16 33 51 48 55 35 346 8 14 8 8 348 358 336 328 351 346 11 357 341 354 348 321 334 320 55 2 350 327 20 357 331 342 250 65 14 13 20 7 5 1 358 3
62 51 23 51 73 61 98 95 54 11 25 8 356 356 350 336 327 341 357 360 344 15 0 334 336 335 332 337 349 20 18 27 6 43 34 43 26 2 10 21 12 7 359 0 1
20 33 27 40 51 49 70 44 47 47 30 353 331 359 347 332 354 326 357 347 6 19 344 339 331 333 315 314 324 359 36 46 49 42 47 35 15 1 358 22 7 3 1 1 1
55 56 20 22 38 54 53 32 33 13 357 28 346 3 341 335 341 5 344 346 360 358 352 350 329 333 311 304 18 45 57 60 54 51 38 33 34 4 3 16 6 360 3 2 357
70 33 65 68 30 56 22 35 15 358 12 8 350 346 326 7 341 320 332 339 357 348 352 353 342 336 39 85 67 38 32 64 56 38 45 36 35 9 1 11 8 3 1 359 355
47 18 12 295 48 48 33 43 11 358 104 9 350 334 349 343 314 298 295 296 336 341 352 347 339 342 3 99 272 35 19 39 37 55 50 34 16 8 357 6 9 355 358 0 352